| time (UTC) | temp C | wind direction | speed KPH | gust KPH | rain 1hr cm | rain 24hr cm | rain mn cm | humidity % | barometer mb |
| 20260507133521 | 15 | 0 | 0.0 | 9.7 | 0.00 | 0.00 | 0.00 | 60 | 1014.7 |
| 20260507132621 | 14 | 0 | 0.0 | 9.7 | 0.00 | 0.00 | 0.00 | 59 | 1014.8 |
| 20260507131721 | 14 | 128 | 0.0 | 16.1 | 0.00 | 0.00 | 0.00 | 58 | 1014.8 |
| 20260507125922 | 15 | 148 | 1.6 | 16.1 | 0.00 | 0.00 | 0.00 | 55 | 1014.9 |
| 20260507125021 | 16 | 148 | 1.6 | 9.7 | 0.00 | 0.00 | 0.00 | 54 | 1014.7 |
| 20260507122321 | 16 | 71 | 0.0 | 9.7 | 0.00 | 0.00 | 0.00 | 51 | 1014.9 |
| 20260507121421 | 16 | 68 | 3.2 | 16.1 | 0.00 | 0.00 | 0.00 | 53 | 1014.9 |
| 20260507120522 | 15 | 138 | 1.6 | 16.1 | 0.00 | 0.00 | 0.00 | 54 | 1015.0 |
| 20260507115622 | 16 | 0 | 0.0 | 9.7 | 0.00 | 0.00 | 0.00 | 55 | 1015.1 |
| 20260507114721 | 15 | 0 | 0.0 | 6.4 | 0.00 | 0.00 | 0.00 | 56 | 1015.0 |
| 20260507113822 | 15 | 0 | 0.0 | 9.7 | 0.00 | 0.00 | 0.00 | 57 | 1015.1 |
| 20260507112921 | 15 | 0 | 0.0 | 6.4 | 0.00 | 0.00 | 0.00 | 59 | 1015.1 |
| 20260507112021 | 15 | 0 | 0.0 | 12.9 | 0.00 | 0.00 | 0.00 | 60 | 1015.2 |
| 20260507110221 | 15 | 141 | 3.2 | 16.1 | 0.00 | 0.00 | 0.00 | 58 | 1015.2 |
| 20260507104421 | 16 | 0 | 0.0 | 6.4 | 0.00 | 0.00 | 0.00 | 60 | 1015.1 |
| 20260507103521 | 15 | 0 | 0.0 | 16.1 | 0.00 | 0.00 | 0.00 | 62 | 1015.1 |
| 20260507102621 | 15 | 0 | 0.0 | 12.9 | 0.00 | 0.00 | 0.00 | 63 | 1015.1 |
| 20260507101722 | 14 | 0 | 0.0 | 12.9 | 0.00 | 0.00 | 0.00 | 64 | 1015.1 |
| 20260507100821 | 14 | 0 | 0.0 | 12.9 | 0.00 | 0.00 | 0.00 | 66 | 1015.2 |
| 20260507095921 | 13 | 0 | 0.0 | 3.2 | 0.00 | 0.00 | 0.00 | 69 | 1015.3 |
| 20260507095021 | 12 | 0 | 0.0 | 3.2 | 0.00 | 0.00 | 0.00 | 75 | 1015.3 |
| 20260507094121 | 12 | 0 | 0.0 | 3.2 | 0.00 | 0.00 | 0.00 | 72 | 1015.3 |
| 20260507093222 | 13 | 0 | 0.0 | 6.4 | 0.00 | 0.00 | 0.00 | 70 | 1015.3 |
| 20260507092321 | 13 | 0 | 0.0 | 3.2 | 0.00 | 0.00 | 0.00 | 69 | 1015.4 |
| 20260507091421 | 13 | 0 | 0.0 | 6.4 | 0.00 | 0.00 | 0.00 | 72 | 1015.3 |
| 20260507090522 | 13 | 0 | 0.0 | 9.7 | 0.00 | 0.00 | 0.00 | 72 | 1015.3 |
| 20260507085621 | 13 | 0 | 0.0 | 6.4 | 0.00 | 0.00 | 0.00 | 73 | 1015.3 |
| 20260507084722 | 12 | 0 | 0.0 | 6.4 | 0.00 | 0.00 | 0.00 | 77 | 1015.4 |
| 20260507083821 | 12 | 0 | 0.0 | 3.2 | 0.00 | 0.00 | 0.00 | 76 | 1015.4 |
| 20260507082021 | 11 | 0 | 0.0 | 6.4 | 0.00 | 0.00 | 0.00 | 81 | 1015.4 |
| 20260507081122 | 11 | 0 | 0.0 | 6.4 | 0.00 | 0.00 | 0.00 | 82 | 1015.3 |
| 20260507080221 | 10 | 0 | 0.0 | 6.4 | 0.00 | 0.00 | 0.00 | 83 | 1015.4 |
| 20260507075322 | 10 | 0 | 0.0 | 9.7 | 0.00 | 0.00 | 0.00 | 84 | 1015.3 |
| 20260507074421 | 10 | 0 | 0.0 | 9.7 | 0.00 | 0.00 | 0.00 | 85 | 1015.3 |
| 20260507071722 | 7 | 0 | 0.0 | 6.4 | 0.00 | 0.00 | 0.00 | 92 | 1015.2 |
| 20260507070822 | 7 | 0 | 0.0 | 3.2 | 0.00 | 0.00 | 0.00 | 92 | 1015.2 |
| 20260507065921 | 7 | 0 | 0.0 | 0.0 | 0.00 | 0.00 | 0.00 | 92 | 1015.2 |
| 20260507065022 | 6 | 0 | 0.0 | 3.2 | 0.00 | 0.00 | 0.00 | 92 | 1015.2 |
| 20260507064121 | 6 | 0 | 0.0 | 0.0 | 0.00 | 0.00 | 0.00 | 92 | 1015.2 |
| 20260507063222 | 6 | 0 | 0.0 | 3.2 | 0.00 | 0.00 | 0.00 | 92 | 1015.1 |
| 20260507062321 | 6 | 0 | 0.0 | 6.4 | 0.00 | 0.00 | 0.00 | 92 | 1015.0 |
| 20260507061421 | 5 | 0 | 0.0 | 3.2 | 0.00 | 0.00 | 0.00 | 92 | 1014.9 |
| 20260507060521 | 5 | 0 | 0.0 | 3.2 | 0.00 | 0.00 | 0.00 | 92 | 1014.9 |
| 20260507055622 | 5 | 0 | 0.0 | 0.0 | 0.00 | 0.00 | 0.00 | 92 | 1014.8 |
| 20260507054721 | 5 | 0 | 0.0 | 0.0 | 0.00 | 0.00 | 0.00 | 92 | 1014.9 |
| 20260507053821 | 5 | 0 | 0.0 | 0.0 | 0.00 | 0.00 | 0.00 | 92 | 1014.9 |
| 20260507052921 | 5 | 0 | 0.0 | 0.0 | 0.00 | 0.00 | 0.00 | 92 | 1014.8 |
| 20260507052021 | 5 | 0 | 0.0 | 0.0 | 0.00 | 0.00 | 0.00 | 92 | 1014.7 |
| 20260507051121 | 5 | 0 | 0.0 | 0.0 | 0.00 | 0.00 | 0.00 | 92 | 1014.7 |
| 20260507050221 | 5 | 0 | 0.0 | 0.0 | 0.00 | 0.00 | 0.00 | 92 | 1014.7 |
| 20260507045321 | 5 | 0 | 0.0 | 0.0 | 0.00 | 0.00 | 0.00 | 92 | 1014.6 |
| 20260507044421 | 6 | 0 | 0.0 | 0.0 | 0.00 | 0.00 | 0.00 | 92 | 1014.7 |
| 20260507042621 | 6 | 0 | 0.0 | 0.0 | 0.00 | 0.00 | 0.00 | 92 | 1014.5 |
| 20260507041721 | 6 | 0 | 0.0 | 0.0 | 0.00 | 0.00 | 0.00 | 92 | 1014.6 |
| 20260507040821 | 6 | 0 | 0.0 | 0.0 | 0.00 | 0.00 | 0.00 | 92 | 1014.6 |
| 20260507035921 | 6 | 0 | 0.0 | 0.0 | 0.00 | 0.00 | 0.00 | 92 | 1014.6 |
| 20260507035021 | 6 | 0 | 0.0 | 0.0 | 0.00 | 0.00 | 0.00 | 92 | 1014.6 |
| 20260507034121 | 5 | 0 | 0.0 | 0.0 | 0.00 | 0.00 | 0.00 | 92 | 1014.6 |
| 20260507033221 | 5 | 0 | 0.0 | 0.0 | 0.00 | 0.00 | 0.00 | 92 | 1014.6 |
| 20260507032322 | 5 | 0 | 0.0 | 0.0 | 0.00 | 0.00 | 0.00 | 92 | 1014.5 |
| 20260507031421 | 5 | 0 | 0.0 | 0.0 | 0.00 | 0.00 | 0.00 | 92 | 1014.5 |
| 20260507030521 | 5 | 0 | 0.0 | 0.0 | 0.00 | 0.00 | 0.00 | 92 | 1014.5 |
| 20260507024721 | 5 | 0 | 0.0 | 0.0 | 0.00 | 0.00 | 0.00 | 92 | 1014.4 |
| 20260507023821 | 5 | 0 | 0.0 | 0.0 | 0.00 | 0.00 | 0.00 | 92 | 1014.3 |
| 20260507022921 | 5 | 0 | 0.0 | 0.0 | 0.00 | 0.00 | 0.00 | 92 | 1014.4 |
| 20260507022021 | 5 | 0 | 0.0 | 0.0 | 0.00 | 0.00 | 0.00 | 92 | 1014.4 |
| 20260507021121 | 5 | 0 | 0.0 | 0.0 | 0.00 | 0.00 | 0.00 | 91 | 1014.3 |
| 20260507020221 | 6 | 0 | 0.0 | 0.0 | 0.00 | 0.00 | 0.00 | 91 | 1014.3 |
| 20260507015321 | 6 | 0 | 0.0 | 3.2 | 0.00 | 0.00 | 0.00 | 91 | 1014.2 |
| 20260507014422 | 6 | 0 | 0.0 | 3.2 | 0.00 | 0.00 | 0.00 | 91 | 1014.2 |
| 20260507012621 | 7 | 0 | 0.0 | 0.0 | 0.00 | 0.00 | 0.00 | 90 | 1014.3 |
| 20260507011722 | 7 | 0 | 0.0 | 6.4 | 0.00 | 0.00 | 0.00 | 90 | 1014.3 |
| 20260507010822 | 7 | 0 | 0.0 | 9.7 | 0.00 | 0.00 | 0.00 | 90 | 1014.4 |
| 20260507002321 | 7 | 0 | 0.0 | 6.4 | 0.00 | 0.00 | 0.00 | 90 | 1014.4 |
| 20260507001423 | 7 | 0 | 0.0 | 3.2 | 0.00 | 0.00 | 0.00 | 90 | 1014.4 |
| 20260507000522 | 7 | 0 | 0.0 | 12.9 | 0.00 | 0.00 | 0.00 | 90 | 1014.3 |
| 20260506235621 | 7 | 0 | 0.0 | 9.7 | 0.00 | 0.00 | 0.00 | 89 | 1014.4 |
| 20260506234722 | 7 | 0 | 0.0 | 9.7 | 0.00 | 0.00 | 0.00 | 89 | 1014.5 |
| 20260506233821 | 7 | 0 | 0.0 | 9.7 | 0.00 | 0.00 | 0.00 | 89 | 1014.5 |
| 20260506232921 | 7 | 0 | 0.0 | 9.7 | 0.00 | 0.00 | 0.00 | 89 | 1014.5 |
| 20260506230221 | 7 | 0 | 0.0 | 6.4 | 0.00 | 0.00 | 0.00 | 89 | 1014.5 |
| 20260506225322 | 7 | 0 | 0.0 | 6.4 | 0.00 | 0.00 | 0.00 | 88 | 1014.5 |
| 20260506224421 | 7 | 0 | 0.0 | 16.1 | 0.00 | 0.00 | 0.00 | 88 | 1014.5 |
| 20260506223521 | 7 | 0 | 0.0 | 16.1 | 0.00 | 0.00 | 0.00 | 88 | 1014.5 |
| 20260506222621 | 7 | 0 | 0.0 | 12.9 | 0.00 | 0.00 | 0.00 | 88 | 1014.4 |
| 20260506221721 | 7 | 0 | 0.0 | 6.4 | 0.00 | 0.00 | 0.00 | 88 | 1014.3 |
| 20260506220821 | 7 | 0 | 0.0 | 3.2 | 0.00 | 0.00 | 0.00 | 88 | 1014.4 |
| 20260506215921 | 7 | 0 | 0.0 | 12.9 | 0.00 | 0.00 | 0.00 | 88 | 1014.4 |
| 20260506215021 | 7 | 0 | 0.0 | 9.7 | 0.00 | 0.00 | 0.00 | 88 | 1014.4 |
| 20260506214121 | 7 | 0 | 0.0 | 12.9 | 0.00 | 0.00 | 0.00 | 87 | 1014.4 |
| 20260506213221 | 7 | 0 | 0.0 | 9.7 | 0.00 | 0.00 | 0.00 | 88 | 1014.4 |
| 20260506212322 | 7 | 0 | 0.0 | 16.1 | 0.00 | 0.00 | 0.00 | 88 | 1014.3 |
| 20260506211421 | 7 | 0 | 0.0 | 6.4 | 0.00 | 0.00 | 0.00 | 88 | 1014.3 |
| 20260506210522 | 7 | 0 | 0.0 | 12.9 | 0.00 | 0.00 | 0.00 | 88 | 1014.3 |
| 20260506205621 | 7 | 0 | 0.0 | 9.7 | 0.00 | 0.00 | 0.00 | 88 | 1014.1 |
| 20260506204721 | 7 | 0 | 0.0 | 16.1 | 0.00 | 0.00 | 0.00 | 88 | 1014.0 |
| 20260506203822 | 7 | 0 | 0.0 | 16.1 | 0.00 | 0.00 | 0.00 | 88 | 1014.0 |
| 20260506202921 | 7 | 11 | 1.6 | 9.7 | 0.00 | 0.00 | 0.00 | 88 | 1014.0 |
| 20260506202022 | 7 | 14 | 1.6 | 12.9 | 0.00 | 0.00 | 0.00 | 88 | 1013.9 |
| 20260506201121 | 7 | 2 | 3.2 | 19.3 | 0.00 | 0.00 | 0.00 | 87 | 1013.9 |
| 20260506200221 | 7 | 23 | 3.2 | 16.1 | 0.00 | 0.00 | 0.00 | 87 | 1013.9 |
| 20260506194421 | 7 | 356 | 3.2 | 19.3 | 0.00 | 0.00 | 0.00 | 86 | 1013.7 |
| 20260506193521 | 7 | 325 | 3.2 | 19.3 | 0.00 | 0.00 | 0.00 | 86 | 1013.7 |
| 20260506192621 | 8 | 321 | 4.8 | 22.5 | 0.00 | 0.00 | 0.00 | 86 | 1013.6 |
| 20260506191721 | 8 | 4 | 6.4 | 25.7 | 0.00 | 0.00 | 0.00 | 86 | 1013.5 |
| 20260506190821 | 8 | 341 | 6.4 | 29.0 | 0.00 | 0.00 | 0.00 | 85 | 1013.6 |
| 20260506185021 | 8 | 336 | 6.4 | 25.7 | 0.00 | 0.00 | 0.00 | 85 | 1013.5 |
| 20260506184122 | 8 | 316 | 6.4 | 32.2 | 0.00 | 0.00 | 0.00 | 84 | 1013.5 |
| 20260506183222 | 8 | 312 | 6.4 | 19.3 | 0.00 | 0.00 | 0.00 | 83 | 1013.5 |
| 20260506182322 | 8 | 327 | 6.4 | 29.0 | 0.00 | 0.00 | 0.00 | 82 | 1013.5 |
| 20260506181421 | 8 | 325 | 6.4 | 25.7 | 0.00 | 0.00 | 0.00 | 83 | 1013.4 |
| 20260506175622 | 9 | 311 | 6.4 | 25.7 | 0.00 | 0.00 | 0.00 | 82 | 1013.2 |
| 20260506174721 | 9 | 338 | 6.4 | 35.4 | 0.00 | 0.00 | 0.00 | 81 | 1013.1 |
| 20260506172921 | 10 | 334 | 4.8 | 19.3 | 0.00 | 0.00 | 0.00 | 79 | 1013.0 |
| 20260506165321 | 10 | 325 | 6.4 | 32.2 | 0.00 | 0.00 | 0.00 | 75 | 1012.7 |
| 20260506164421 | 10 | 316 | 6.4 | 25.7 | 0.00 | 0.00 | 0.00 | 74 | 1012.7 |
| 20260506163521 | 11 | 323 | 4.8 | 29.0 | 0.00 | 0.00 | 0.00 | 73 | 1012.7 |
| 20260506160821 | 11 | 341 | 3.2 | 29.0 | 0.00 | 0.00 | 0.00 | 71 | 1012.7 |
| 20260506155021 | 11 | 324 | 4.8 | 22.5 | 0.00 | 0.00 | 0.00 | 69 | 1012.7 |
| 20260506154121 | 11 | 336 | 3.2 | 22.5 | 0.00 | 0.00 | 0.00 | 68 | 1012.7 |
| 20260506153221 | 11 | 314 | 3.2 | 22.5 | 0.00 | 0.00 | 0.00 | 65 | 1012.7 |
| 20260506152321 | 11 | 317 | 3.2 | 22.5 | 0.00 | 0.00 | 0.00 | 64 | 1012.7 |
| 20260506151422 | 11 | 327 | 4.8 | 19.3 | 0.00 | 0.00 | 0.00 | 64 | 1012.7 |
| 20260506150522 | 11 | 337 | 3.2 | 19.3 | 0.00 | 0.00 | 0.00 | 63 | 1012.6 |
| 20260506145622 | 11 | 328 | 3.2 | 12.9 | 0.00 | 0.00 | 0.00 | 63 | 1012.6 |
| 20260506144721 | 11 | 333 | 3.2 | 16.1 | 0.00 | 0.00 | 0.00 | 63 | 1012.6 |
| 20260506143821 | 11 | 312 | 3.2 | 19.3 | 0.00 | 0.00 | 0.00 | 62 | 1012.5 |
| 20260506142921 | 11 | 319 | 4.8 | 16.1 | 0.00 | 0.00 | 0.00 | 62 | 1012.6 |
| 20260506142022 | 11 | 319 | 6.4 | 25.7 | 0.00 | 0.00 | 0.00 | 62 | 1012.6 |
| 20260506141121 | 11 | 318 | 3.2 | 29.0 | 0.00 | 0.00 | 0.00 | 60 | 1012.6 |
| 20260506140221 | 11 | 313 | 4.8 | 19.3 | 0.00 | 0.00 | 0.00 | 65 | 1012.7 |
| 20260506135321 | 11 | 331 | 6.4 | 19.3 | 0.00 | 0.00 | 0.00 | 66 | 1012.7 |
| 20260506134422 | 11 | 350 | 6.4 | 29.0 | 0.00 | 0.00 | 0.00 | 66 | 1012.8 |